H1 CPF 2 NER 2025 8 29 9 241 01 glonass141 H2 1908801 9141 44850 2025 8 29 0 0 0 2025 9 1 23 45 0 900 1 1 0 0 0 1 H9 10 0 60916 0.00000 0 12193813.299 -7386094.573 -21124051.374 10 0 60916 900.00000 0 11474523.428 -4799213.310 -22243844.492 10 0 60916 1800.00000 0 10931153.678 -2056417.333 -22930489.812 10 0 60916 2700.00000 0 10588116.008 775881.597 -23170668.761 10 0 60916 3600.00000 0 10457807.280 3627505.946 -22959774.713 10 0 60916 4500.00000 0 10540102.826 6427197.596 -22301997.599 10 0 60916 5400.00000 0 10822397.157 9105348.463 -21210235.512 10 0 60916 6300.00000 0 11280189.354 11596662.895 -19705835.525 10 0 60916 7200.00000 0 11878187.554 13842641.241 -17818169.270 10 0 60916 8100.00000 0 12571884.965 15793781.721 -15584052.073 10 0 60916 9000.00000 0 13309539.955 17411409.667 -13047017.449 10 0 60916 9900.00000 0 14034475.747 18669059.009 -10256461.649 10 0 60916 10800.00000 0 14687601.835 19553349.833 -7266675.433 10 0 60916 11700.00000 0 15210050.061 20064327.077 -4135782.436 10 0 60916 12600.00000 0 15545813.604 20215248.113 -924605.344 10 0 60916 13500.00000 0 15644277.227 20031830.127 2304517.653 10 0 60916 14400.00000 0 15462531.987 19550990.779 5488942.787 10 0 60916 15300.00000 0 14967376.879 18819136.738 8566933.318 10 0 60916 16200.00000 0 14136923.292 17890073.357 11478851.349 10 0 60916 17100.00000 0 12961734.955 16822624.253 14168306.060 10 0 60916 18000.00000 0 11445455.624 15678061.299 16583236.652 10 0 60916 18900.00000 0 9604898.075 14517452.927 18676909.865 10 0 60916 19800.00000 0 7469590.363 13399041.606 20408813.800 10 0 60916 20700.00000 0 5080797.619 12375759.725 21745431.864 10 0 60916 21600.00000 0 2490059.159 11492987.012 22660883.018 10 0 60916 22500.00000 0 -242699.617 10786642.359 23137416.965 10 0 60916 23400.00000 0 -3051403.682 10281689.010 23165755.480 10 0 60916 24300.00000 0 -5866322.224 9991114.968 22745273.697 10 0 60916 25200.00000 0 -8616718.364 9915430.878 21884017.892 10 0 60916 26100.00000 0 -11233546.666 10042706.476 20598558.984 10 0 60916 27000.00000 0 -13652088.213 10349144.455 18913683.763 10 0 60916 27900.00000 0 -15814415.198 10800168.411 16861928.673 10 0 60916 28800.00000 0 -17671583.485 11351980.182 14482963.795 10 0 60916 29700.00000 0 -19185462.418 11953522.105 11822837.512 10 0 60916 30600.00000 0 -20330125.647 12548762.544 8933095.118 10 0 60916 31500.00000 0 -21092744.617 13079208.985 5869787.339 10 0 60916 32400.00000 0 -21473946.819 13486542.942 2692387.182 10 0 60916 33300.00000 0 -21487623.205 13715265.111 -537364.253 10 0 60916 34200.00000 0 -21160192.311 13715238.235 -3756660.488 10 0 60916 35100.00000 0 -20529351.661 13444018.919 -6902857.092 10 0 60916 36000.00000 0 -19642368.930 12868878.152 -9914699.120 10 0 60916 36900.00000 0 -18553985.112 11968423.240 -12733523.628 10 0 60916 37800.00000 0 -17324018.618 10733750.630 -15304412.703 10 0 60916 38700.00000 0 -16014772.114 9169078.972 -17577273.463 10 0 60916 39600.00000 0 -14688352.399 7291833.952 -19507822.945 10 0 60916 40500.00000 0 -13404017.260 5132179.745 -21058457.950 10 0 60916 41400.00000 0 -12215661.971 2732015.511 -22198992.379 10 0 60916 42300.00000 0 -11169552.000 143478.145 -22907247.412 10 0 60916 43200.00000 0 -10302397.713 -2572986.652 -23169483.061 10 0 60916 44100.00000 0 -9639852.175 -5350904.680 -22980662.865 10 0 60916 45000.00000 0 -9195494.865 -8120309.826 -22344546.916 10 0 60916 45900.00000 0 -8970343.432 -10810431.179 -21273611.877 10 0 60916 46800.00000 0 -8952913.022 -13352418.735 -19788800.003 10 0 60916 47700.00000 0 -9119819.507 -15681994.187 -17919102.602 10 0 60916 48600.00000 0 -9436899.860 -17741916.648 -15700986.552 10 0 60916 49500.00000 0 -9860801.112 -19484161.091 -13177675.548 10 0 60916 50400.00000 0 -10340969.521 -20871719.389 -10398300.635 10 0 60916 51300.00000 0 -10821954.855 -21879949.912 -7416937.078 10 0 60916 52200.00000 0 -11245931.459 -22497420.684 -4291546.830 10 0 60916 53100.00000 0 -11555328.843 -22726212.402 -1082847.731 10 0 60916 54000.00000 0 -11695460.154 -22581670.415 2146868.134 10 0 60916 54900.00000 0 -11617037.231 -22091617.821 5334943.624 10 0 60916 55800.00000 0 -11278465.995 -21295064.340 8419569.565 10 0 60916 56700.00000 0 -10647825.429 -20240466.590 11340978.111 10 0 60916 57600.00000 0 -9704446.949 -18983613.799 14042593.616 10 0 60916 58500.00000 0 -8440027.810 -17585228.324 16472119.229 10 0 60916 59400.00000 0 -6859231.786 -16108381.756 18582539.006 10 0 60916 60300.00000 0 -4979751.662 -14615834.575 20333017.183 10 0 60916 61200.00000 0 -2831830.369 -13167410.087 21689678.304 10 0 60916 62100.00000 0 -457259.807 -11817511.500 22626254.291 10 0 60916 63000.00000 0 2092102.243 -10612884.801 23124586.972 10 0 60916 63900.00000 0 4756236.995 -9590719.738 23174977.117 10 0 60916 64800.00000 0 7469214.039 -8777167.200 22776373.706 10 0 60916 65700.00000 0 10161693.819 -8186334.132 21936399.790 10 0 60916 66600.00000 0 12763581.269 -7819797.534 20671214.056 10 0 60916 67500.00000 0 15206722.221 -7666657.772 19005209.967 10 0 60916 68400.00000 0 17427532.122 -7704129.245 16970557.134 10 0 60916 69300.00000 0 19369448.774 -7898644.156 14606592.447 10 0 60916 70200.00000 0 20985107.626 -8207423.764 11959071.305 10 0 60916 71100.00000 0 22238149.059 -8580451.723 9079292.054 10 0 60916 72000.00000 0 23104581.873 -8962766.958 6023109.491 10 0 60916 72900.00000 0 23573645.343 -9296979.639 2849855.746 10 0 60916 73800.00000 0 23648132.941 -9525903.862 -378810.960 10 0 60916 74700.00000 0 23344163.303 -9595195.148 -3600107.214 10 0 60916 75600.00000 0 22690407.394 -9455880.163 -6751351.209 10 0 60916 76500.00000 0 21726803.908 -9066670.149 -9771190.807 10 0 60916 77400.00000 0 20502816.853 -8395958.416 -12600807.889 10 0 60916 78300.00000 0 19075308.880 -7423415.487 -15185074.435 10 0 60916 79200.00000 0 17506120.403 -6141112.473 -17473636.685 10 0 60916 80100.00000 0 15859457.217 -4554123.362 -19421905.228 10 0 60916 81000.00000 0 14199197.365 -2680579.101 -20991930.961 10 0 60916 81900.00000 0 12586231.394 -551169.729 -22153149.289 10 0 60916 82800.00000 0 11075948.507 1791885.658 -22882977.816 10 0 60916 83700.00000 0 9715974.662 4296358.750 -23167255.845 10 0 60916 84600.00000 0 8544257.683 6901958.576 -23000517.353 10 0 60916 85500.00000 0 7587579.504 9542623.652 -22386092.434 10 0 60917 0.00000 0 6860557.335 12149063.857 -21336035.818 10 0 60917 900.00000 0 6365174.311 14651447.397 -19870883.715 10 0 60917 1800.00000 0 6090858.854 16982117.280 -18019245.721 10 0 60917 2700.00000 0 6015106.574 19078228.749 -15817238.401 10 0 60917 3600.00000 0 6104617.846 20884194.409 -13307773.391 10 0 60917 4500.00000 0 6316901.025 22353836.861 -10539713.936 10 0 60917 5400.00000 0 6602272.178 23452159.447 -7566916.889 10 0 60917 6300.00000 0 6906165.551 24156662.097 -4447179.349 10 0 60917 7200.00000 0 7171656.027 24458148.488 -1241110.959 10 0 60917 8100.00000 0 7342086.156 24360992.140 1989045.746 10 0 60917 9000.00000 0 7363686.209 23882851.876 5180623.677 10 0 60917 9900.00000 0 7188076.301 23053850.038 8271744.526 10 0 60917 10800.00000 0 6774544.892 21915249.300 11202513.594 10 0 60917 11700.00000 0 6092007.684 20517684.623 13916173.216 10 0 60917 12600.00000 0 5120564.536 18919025.159 16360192.973 10 0 60917 13500.00000 0 3852588.989 17181955.938 18487276.372 10 0 60917 14400.00000 0 2293304.508 15371380.343 20256265.553 10 0 60917 15300.00000 0 460822.944 13551751.402 21632927.594 10 0 60917 16200.00000 0 -1614357.214 11784442.403 22590608.388 10 0 60917 17100.00000 0 -3890372.963 10125265.368 23110742.488 10 0 60917 18000.00000 0 -6315498.202 8622239.612 23183209.822 10 0 60917 18900.00000 0 -8830063.730 7313702.130 22806532.906 10 0 60917 19800.00000 0 -11368717.981 6226837.506 21987910.755 10 0 60917 20700.00000 0 -13862936.534 5376687.804 20743088.502 10 0 60917 21600.00000 0 -16243677.994 4765683.279 19096064.434 10 0 60917 22500.00000 0 -18444077.480 4383713.341 17078638.994 10 0 60917 23400.00000 0 -20402066.856 4208734.941 14729813.115 10 0 60917 24300.00000 0 -22062813.322 4207893.250 12095046.096 10 0 60917 25200.00000 0 -23380874.890 4339108.022 9225385.986 10 0 60917 26100.00000 0 -24321982.428 4553059.337 6176488.185 10 0 60917 27000.00000 0 -24864373.065 4795489.255 3007540.451 10 0 60917 27900.00000 0 -24999618.133 5009722.205 -219885.289 10 0 60917 28800.00000 0 -24732909.827 5139297.106 -3443031.953 10 0 60917 29700.00000 0 -24082793.540 5130599.028 -6599183.445 10 0 60917 30600.00000 0 -23080356.241 4935377.752 -9626893.295 10 0 60917 31500.00000 0 -21767904.527 4513044.992 -12467190.819 10 0 60917 32400.00000 0 -20197187.739 3832651.250 -15064740.196 10 0 60917 33300.00000 0 -18427241.069 2874456.765 -17368928.735 10 0 60917 34200.00000 0 -16521939.815 1631028.250 -19334862.104 10 0 60917 35100.00000 0 -14547368.242 107813.387 -20924246.337 10 0 60917 36000.00000 0 -12569114.260 -1676832.725 -22106138.873 10 0 60917 36900.00000 0 -10649604.167 -3692171.537 -22857553.730 10 0 60917 37800.00000 0 -8845589.683 -5896134.404 -23163908.984 10 0 60917 38700.00000 0 -7205892.772 -8236861.843 -23019308.042 10 0 60917 39600.00000 0 -5769502.574 -10654664.609 -22426649.561 10 0 60917 40500.00000 0 -4564103.539 -13084324.713 -21397564.313 10 0 60917 41400.00000 0 -3605095.406 -15457640.284 -19952180.729 10 0 60917 42300.00000 0 -2895144.741 -17706107.825 -18118724.210 10 0 60917 43200.00000 0 -2424285.145 -19763629.852 -15932958.514 10 0 60917 44100.00000 0 -2170560.017 -21569134.821 -13437480.633 10 0 60917 45000.00000 0 -2101178.894 -23069000.073 -10680883.415 10 0 60917 45900.00000 0 -2174136.749 -24219176.896 -7716802.763 10 0 60917 46800.00000 0 -2340226.175 -24986929.489 -4602868.475 10 0 60917 47700.00000 0 -2545356.058 -25352115.879 -1399579.677 10 0 60917 48600.00000 0 -2733077.564 -25307958.256 1830872.821 10 0 60917 49500.00000 0 -2847209.870 -24861271.673 5025814.031 10 0 60917 50400.00000 0 -2834454.160 -24032142.801 8123298.451 10 0 60917 51300.00000 0 -2646885.279 -22853073.404 11063306.352 10 0 60917 52200.00000 0 -2244215.876 -21367625.432 13788899.777 10 0 60917 53100.00000 0 -1595737.764 -19628625.190 16247316.340 10 0 60917 54000.00000 0 -681858.897 -17696002.081 18390980.451 10 0 60917 54900.00000 0 504828.559 -15634352.119 20178413.412 10 0 60917 55800.00000 0 1958994.067 -13510327.502 21575025.879 10 0 60917 56700.00000 0 3662552.175 -11389960.179 22553778.516 10 0 60917 57600.00000 0 5585185.169 -9336029.750 23095699.130 10 0 60917 58500.00000 0 7685384.371 -7405583.951 23190247.088 10 0 60917 59400.00000 0 9911968.274 -5647713.487 22835518.462 10 0 60917 60300.00000 0 12206016.184 -4101672.467 22038288.021 10 0 60917 61200.00000 0 14503138.832 -2795421.601 20813886.899 10 0 60917 62100.00000 0 16735993.417 -1744653.996 19185917.544 10 0 60917 63000.00000 0 18836940.133 -952343.668 17185810.337 10 0 60917 63900.00000 0 20740730.897 -408835.449 14852229.109 10 0 60917 64800.00000 0 22387119.073 -92472.610 12230335.641 10 0 60917 65700.00000 0 23723281.663 29263.894 9370925.949 10 0 60917 66600.00000 0 24705952.516 -1847.881 6329453.980 10 0 60917 67500.00000 0 25303176.628 -136770.922 3164960.733 10 0 60917 68400.00000 0 25495610.970 -321521.720 -61070.829 10 0 60917 69300.00000 0 25277316.006 -499697.110 -3285912.860 10 0 60917 70200.00000 0 24656003.334 -615107.983 -6446818.002 10 0 60917 71100.00000 0 23652727.826 -614407.316 -9482248.502 10 0 60917 72000.00000 0 22301036.257 -449599.873 -12333084.071 10 0 60917 72900.00000 0 20645607.585 -80325.667 -14943783.860 10 0 60917 73800.00000 0 18740441.754 524181.239 -17263478.790 10 0 60917 74700.00000 0 16646673.240 1383543.263 -19246971.884 10 0 60917 75600.00000 0 14430101.510 2505166.352 -20855626.297 10 0 60917 76500.00000 0 12158542.499 3883690.379 -22058123.209 10 0 60917 77400.00000 0 9899112.742 5500987.379 -22831074.451 10 0 60917 78300.00000 0 7715560.341 7326708.691 -23159477.940 10 0 60917 79200.00000 0 5665754.730 9319358.793 -23037007.229 10 0 60917 80100.00000 0 3799440.161 11427851.204 -22466129.844 10 0 60917 81000.00000 0 2156346.395 13593481.442 -21458052.580 10 0 60917 81900.00000 0 764734.702 15752234.484 -20032495.319 10 0 60917 82800.00000 0 -359561.262 17837329.989 -18217298.279 10 0 60917 83700.00000 0 -1213561.226 19781898.681 -16047870.895 10 0 60917 84600.00000 0 -1807014.815 21521677.778 -13566493.555 10 0 60917 85500.00000 0 -2161736.082 22997612.609 -10821486.343 10 0 60918 0.00000 0 -2310426.181 24158255.572 -7866261.750 10 0 60918 900.00000 0 -2295035.885 24961862.837 -4758278.710 10 0 60918 1800.00000 0 -2164738.638 25378099.986 -1557922.830 10 0 60918 2700.00000 0 -1973601.526 25389287.945 1672670.204 10 0 60918 3600.00000 0 -1778053.447 24991136.223 4870820.950 10 0 60918 4500.00000 0 -1634258.375 24192934.424 7974520.103 10 0 60918 5400.00000 0 -1595505.043 23017194.855 10923626.156 10 0 60918 6300.00000 0 -1709723.384 21498762.081 13661023.902 10 0 60918 7200.00000 0 -2017232.345 19683427.348 16133721.766 10 0 60918 8100.00000 0 -2548813.705 17626106.125 18293867.534 10 0 60918 9000.00000 0 -3324192.736 15388654.830 20099663.820 10 0 60918 9900.00000 0 -4350989.396 13037417.349 21516166.650 10 0 60918 10800.00000 0 -5624184.259 10640602.729 22515952.874 10 0 60918 11700.00000 0 -7126122.047 8265601.966 23079644.573 10 0 60918 12600.00000 0 -8827053.542 5976354.104 23196281.124 10 0 60918 13500.00000 0 -10686194.574 3830869.576 22863532.247 10 0 60918 14400.00000 0 -12653259.537 1879012.190 22087748.037 10 0 60918 15300.00000 0 -14670407.336 160630.650 20883844.653 10 0 60918 16200.00000 0 -16674520.529 -1295883.784 19275027.175 10 0 60918 17100.00000 0 -18599724.493 -2474554.237 17292353.840 10 0 60918 18000.00000 0 -20380042.962 -3372250.279 14974148.808 10 0 60918 18900.00000 0 -21952080.216 -3998577.226 12365273.325 10 0 60918 19800.00000 0 -23257618.380 -4375227.275 9516268.036 10 0 60918 20700.00000 0 -24246021.117 -4534819.480 6482381.848 10 0 60918 21600.00000 0 -24876342.501 -4519277.201 3322505.311 10 0 60918 22500.00000 0 -25119051.572 -4377811.332 98028.694 10 0 60918 23400.00000 0 -24957298.797 -4164594.621 -3128353.042 10 0 60918 24300.00000 0 -24387669.707 -3936225.877 -6293864.803 10 0 60918 25200.00000 0 -23420392.486 -3749092.211 -9336880.884 10 0 60918 26100.00000 0 -22078989.407 -3656742.123 -12198134.479 10 0 60918 27000.00000 0 -20399385.719 -3707382.142 -14821882.505 10 0 60918 27900.00000 0 -18428512.692 -3941604.563 -17157001.906 10 0 60918 28800.00000 0 -16222463.194 -4390444.141 -19157995.007 10 0 60918 29700.00000 0 -13844277.182 -5073847.472 -20785883.505 10 0 60918 30600.00000 0 -11361450.222 -5999621.226 -22008973.119 10 0 60918 31500.00000 0 -8843269.772 -7162904.812 -22803473.649 10 0 60918 32400.00000 0 -6358091.063 -8546190.701 -23153962.370 10 0 60918 33300.00000 0 -3970666.721 -10119892.259 -23053681.886 10 0 60918 34200.00000 0 -1739641.720 -11843435.627 -22504666.964 10 0 60918 35100.00000 0 284682.052 -13666830.005 -21517698.353 10 0 60918 36000.00000 0 2062218.953 -15532650.414 -20112084.949 10 0 60918 36900.00000 0 3564533.333 -17378349.617 -18315279.095 10 0 60918 37800.00000 0 4775775.437 -19138802.009 -16162333.023 10 0 60918 38700.00000 0 5693082.167 -20748972.597 -13695207.539 10 0 60918 39600.00000 0 6326427.963 -22146598.906 -10961946.938 10 0 60918 40500.00000 0 6697934.337 -23274773.275 -8015736.769 10 0 60918 41400.00000 0 6840669.273 -24084317.270 -4913863.255 10 0 60918 42300.00000 0 6796989.172 -24535848.819 -1716595.200 10 0 60918 43200.00000 0 6616495.039 -24601455.763 1513989.444 10 0 60918 44100.00000 0 6353690.668 -24265906.202 4715209.186 10 0 60918 45000.00000 0 6065442.778 -23527345.555 7824993.097 10 0 60918 45900.00000 0 5808351.012 -22397451.860 10783079.846 10 0 60918 46800.00000 0 5636139.095 -20901043.496 13532178.674 10 0 60918 47700.00000 0 5597177.167 -19075156.246 16019070.247 10 0 60918 48600.00000 0 5732239.414 -16967628.581 18195626.883 10 0 60918 49500.00000 0 6072591.023 -14635254.116 20019733.373 10 0 60918 50400.00000 0 6638484.519 -12141577.841 21456091.675 10 0 60918 51300.00000 0 7438128.437 -9554427.041 22476895.097 10 0 60918 52200.00000 0 8467171.681 -6943278.383 23062359.975 10 0 60918 53100.00000 0 9708725.661 -4376569.152 23201105.414 10 0 60918 54000.00000 0 11133924.154 -1919062.663 22890374.276 10 0 60918 54900.00000 0 12702998.805 370624.432 22136091.272 10 0 60918 55800.00000 0 14366826.914 2442231.753 20952756.719 10 0 60918 56700.00000 0 16068888.612 4255711.248 19363177.311 10 0 60918 57600.00000 0 17747553.459 5782653.509 17398038.004 10 0 60918 58500.00000 0 19338602.474 7007225.596 15095321.983 10 0 60918 59400.00000 0 20777881.387 7926581.585 12499588.516 10 0 60918 60300.00000 0 22003974.818 8550728.765 9661121.230 10 0 60918 61200.00000 0 22960789.527 8901854.944 6634962.144 10 0 60918 62100.00000 0 23599938.014 9013144.990 3479849.276 10 0 60918 63000.00000 0 23882821.464 8927136.258 257077.925 10 0 60918 63900.00000 0 23782323.147 8693682.348 -2970692.294 10 0 60918 64800.00000 0 23284039.432 8367611.471 -6140661.106 10 0 60918 65700.00000 0 22386994.882 8006179.080 -9191117.437 10 0 60918 66600.00000 0 21103809.647 7666423.507 -12062650.489 10 0 60918 67500.00000 0 19460310.646 7402537.730 -14699317.333 10 0 60918 68400.00000 0 17494601.706 7263369.955 -17049743.154 10 0 60918 69300.00000 0 15255630.933 7290160.254 -19068131.597 10 0 60918 70200.00000 0 12801315.023 7514610.464 -20715164.718 10 0 60918 71100.00000 0 10196299.006 7957370.217 -21958774.390 10 0 60918 72000.00000 0 7509445.381 8627004.176 -22774769.808 10 0 60918 72900.00000 0 4811157.862 9519484.904 -23147308.796 10 0 60918 73800.00000 0 2170651.752 10618233.290 -23069203.929 10 0 60918 74700.00000 0 -346715.009 11894705.195 -22542057.807 10 0 60918 75600.00000 0 -2681938.946 13309499.650 -21576225.320 10 0 60918 76500.00000 0 -4784592.668 14813941.929 -20190604.130 10 0 60918 77400.00000 0 -6614679.133 16352074.652 -18412257.985 10 0 60918 78300.00000 0 -8144042.463 17862972.897 -16275880.723 10 0 60918 79200.00000 0 -9357277.986 19283285.686 -13823111.922 10 0 60918 80100.00000 0 -10252105.361 20549896.640 -11101718.058 10 0 60918 81000.00000 0 -10839191.323 21602591.766 -8164655.616 10 0 60918 81900.00000 0 -11141431.734 22386622.068 -5069034.908 10 0 60918 82800.00000 0 -11192725.339 22855053.276 -1875005.297 10 0 60918 83700.00000 0 -11036292.865 22970804.116 1355416.039 10 0 60918 84600.00000 0 -10722614.078 22708287.791 4559548.691 10 0 60918 85500.00000 0 -10307071.142 22054588.187 7675263.270 10 0 60919 0.00000 0 -9847398.707 21010122.062 10642181.491 10 0 60919 900.00000 0 -9401048.529 19588759.308 13402840.611 10 0 60919 1800.00000 0 -9022580.483 17817398.109 15903796.158 10 0 60919 2700.00000 0 -8761188.821 15735011.063 18096647.682 10 0 60919 3600.00000 0 -8658467.956 13391203.268 19938964.603 10 0 60919 4500.00000 0 -8746510.934 10844341.536 21395096.992 10 0 60919 5400.00000 0 -9046419.958 8159331.833 22436856.463 10 0 60919 6300.00000 0 -9567291.187 5405136.132 23044055.082 10 0 60919 7200.00000 0 -10305716.322 2652130.378 23204892.747 10 0 60919 8100.00000 0 -11245822.273 -30588.508 22916186.058 10 0 60919 9000.00000 0 -12359848.046 -2577836.570 22183434.434 10 0 60919 9900.00000 0 -13609235.891 -4930810.083 21020721.905 10 0 60919 10800.00000 0 -14946192.536 -7039285.212 19450455.775 10 0 60919 11700.00000 0 -16315656.779 -8863459.837 17502946.155 10 0 60919 12600.00000 0 -17657592.613 -10375361.764 15215833.183 10 0 60919 13500.00000 0 -18909513.169 -11559765.096 12633371.586 10 0 60919 14400.00000 0 -20009130.590 -12414576.683 9805585.009 10 0 60919 15300.00000 0 -20897021.060 -12950676.394 6787305.302 10 0 60919 16200.00000 0 -21519192.894 -13191217.699 3637114.441 10 0 60919 17100.00000 0 -21829449.001 -13170417.781 416209.098 10 0 60919 18000.00000 0 -21791443.058 -12931888.010 -2812790.170 10 0 60919 18900.00000 0 -21380341.222 -12526575.369 -5987061.617 10 0 60919 19800.00000 0 -20584017.565 -12010402.166 -9044812.435 10 0 60919 20700.00000 0 -19403730.958 -11441704.551 -11926491.325 10 0 60919 21600.00000 0 -17854253.124 -10878579.189 -14575958.795 10 0 60919 22500.00000 0 -15963440.935 -10376251.523 -16941591.233 10 0 60919 23400.00000 0 -13771269.673 -9984578.294 -18977296.160 10 0 60919 24300.00000 0 -11328367.054 -9745791.190 -20643418.023 10 0 60919 25200.00000 0 -8694108.915 -9692578.177 -21907516.282 10 0 60919 26100.00000 0 -5934356.178 -9846584.532 -22745000.276 10 0 60919 27000.00000 0 -3118927.694 -10217397.522 -23139608.439 10 0 60919 27900.00000 0 -318914.613 -10802057.978 -23083722.710 10 0 60919 28800.00000 0 2396051.554 -11585119.500 -22578512.307 10 0 60919 29700.00000 0 4960463.366 -12539252.637 -21633904.523 10 0 60919 30600.00000 0 7315423.614 -13626368.334 -20268383.617 10 0 60919 31500.00000 0 9410850.169 -14799212.829 -18508622.215 10 0 60919 32400.00000 0 11207308.562 -16003366.331 -16388952.960 10 0 60919 33300.00000 0 12677397.132 -17179560.752 -13950691.178 10 0 60919 34200.00000 0 13806628.542 -18266218.365 -11241322.316 10 0 60919 35100.00000 0 14593772.720 -19202104.011 -8313570.470 10 0 60919 36000.00000 0 15050649.013 -19928978.837 -5224366.653 10 0 60919 36900.00000 0 15201378.441 -20394143.601 -2033737.404 10 0 60919 37800.00000 0 15081129.611 -20552764.420 1196364.170 10 0 60919 38700.00000 0 14734412.986 -20369883.202 4403261.864 10 0 60919 39600.00000 0 14212996.913 -19822028.428 7524770.689 10 0 60919 40500.00000 0 13573534.456 -18898358.914 10500398.450 10 0 60919 41400.00000 0 12875001.735 -17601292.845 13272511.495 10 0 60919 42300.00000 0 12176056.017 -15946595.969 15787442.491 10 0 60919 43200.00000 0 11532424.645 -13962925.291 17996519.503 10 0 60919 44100.00000 0 10994434.208 -11690847.155 19856997.444 10 0 60919 45000.00000 0 10604783.130 -9181370.150 21332874.930 10 0 60919 45900.00000 0 10396650.453 -6494053.062 22395581.916 10 0 60919 46800.00000 0 10392219.482 -3694765.345 23024525.888 10 0 60919 47700.00000 0 10601677.724 -853191.603 23207486.889 10 0 60919 48600.00000 0 11022734.870 1959818.055 22940854.343 10 0 60919 49500.00000 0 11640679.274 4674943.748 22229701.243 10 0 60919 50400.00000 0 12428971.249 7227027.591 21087694.010 10 0 60919 51300.00000 0 13350349.338 9557533.898 19536839.103 10 0 60919 52200.00000 0 14358404.535 11616737.049 17607070.219 10 0 60919 53100.00000 0 15399557.790 13365546.968 15335682.772 10 0 60919 54000.00000 0 16415359.196 14776896.825 12766625.173 10 0 60919 54900.00000 0 17345013.293 15836635.288 9949659.199 10 0 60919 55800.00000 0 18128025.002 16543885.947 6939404.513 10 0 60919 56700.00000 0 18706854.951 16910858.587 3794284.912 10 0 60919 57600.00000 0 19029471.922 16962119.926 575396.188 10 0 60919 58500.00000 0 19051693.843 16733354.214 -2654682.489 10 0 60919 59400.00000 0 18739217.155 16269665.827 -5833110.253 10 0 60919 60300.00000 0 18069247.151 15623495.638 -8898014.876 10 0 60919 61200.00000 0 17031658.593 14852239.643 -11789706.768 10 0 60919 62100.00000 0 15629635.646 14015671.202 -14451851.934 10 0 60919 63000.00000 0 13879762.368 13173276.861 -16832579.848 10 0 60919 63900.00000 0 11811558.346 12381619.482 -18885503.607 10 0 60919 64800.00000 0 9466477.742 11691841.254 -20570631.574 10 0 60919 65700.00000 0 6896412.852 11147413.096 -21855152.159 10 0 60919 66600.00000 0 4161764.354 10782226.331 -22714076.048 10 0 60919 67500.00000 0 1329158.698 10619107.703 -23130723.320 10 0 60919 68400.00000 0 -1531092.076 10668820.642 -23097046.084 10 0 60919 69300.00000 0 -4347682.068 10929594.814 -22613780.690 10 0 60919 70200.00000 0 -7051042.590 11387203.428 -21690427.005 10 0 60919 71100.00000 0 -9575998.934 12015584.495 -20345055.631 10 0 60919 72000.00000 0 -11864242.503 12777979.101 -18603947.388 10 0 60919 72900.00000 0 -13866515.933 13628537.907 -16501072.601 10 0 60919 73800.00000 0 -15544421.109 14514327.316 -14077420.825 10 0 60919 74700.00000 0 -16871775.894 15377649.916 -11380194.623 10 0 60919 75600.00000 0 -17835464.526 16158580.626 -8461883.570 10 0 60919 76500.00000 0 -18435747.971 16797610.998 -5379237.034 10 0 60919 77400.00000 0 -18686023.233 17238289.723 -2192156.227 10 0 60919 78300.00000 0 -18612043.786 17429747.726 1037472.443 10 0 60919 79200.00000 0 -18250635.831 17329001.338 4246979.694 10 0 60919 80100.00000 0 -17647966.081 16902936.568 7374127.734 10 0 60919 81000.00000 0 -16857435.342 16129891.127 10358313.037 10 0 60919 81900.00000 0 -15937287.505 15000767.884 13141734.429 10 0 60919 82800.00000 0 -14948035.054 13519633.165 15670504.240 10 0 60919 83700.00000 0 -13949809.412 11703774.812 17895681.755 10 0 60919 84600.00000 0 -12999747.104 9583217.336 19774209.910 10 0 60919 85500.00000 0 -12149520.815 7199713.883 21269738.174 99